Time,TemperatureF,DewpointF,PressureIn,WindDirection,WindDirectionDegrees,WindSpeedMPH,WindSpeedGustMPH,Humidity,HourlyPrecipIn,Conditions,Clouds,dailyrainin,SoftwareType,DateUTC
2013-01-31 06:01:00,48.0,31.0,30.16,ESE,104,10.0,20.0,51,0.00,,,0.00,,2013-01-31 14:01:00,
2013-01-31 06:11:00,48.0,31.0,30.16,ESE,104,10.0,20.0,51,0.00,,,0.00,,2013-01-31 14:11:00,
2013-01-31 06:21:00,47.0,30.0,30.16,East,89,7.0,15.0,51,0.00,,,0.00,,2013-01-31 14:21:00,
2013-01-31 06:31:00,47.0,30.0,30.16,East,99,10.0,18.0,52,0.00,,,0.00,,2013-01-31 14:31:00,
2013-01-31 06:41:00,47.0,30.0,30.16,East,99,10.0,18.0,52,0.00,,,0.00,,2013-01-31 14:41:00,
2013-01-31 06:52:00,47.0,30.0,30.16,ESE,113,9.0,16.0,52,0.00,,,0.00,,2013-01-31 14:52:00,
2013-01-31 07:02:00,47.0,30.0,30.16,East,97,9.0,16.0,52,0.00,,,0.00,,2013-01-31 15:02:00,
2013-01-31 07:11:00,47.0,30.0,30.17,ESE,121,12.0,18.0,52,0.00,,,0.00,,2013-01-31 15:11:00,
2013-01-31 07:21:00,47.0,30.0,30.17,ESE,121,12.0,18.0,52,0.00,,,0.00,,2013-01-31 15:21:00,
2013-01-31 07:31:00,47.0,30.0,30.17,ESE,104,10.0,16.0,52,0.00,,,0.00,,2013-01-31 15:31:00,
2013-01-31 07:42:00,47.0,30.0,30.17,ESE,104,10.0,16.0,52,0.00,,,0.00,,2013-01-31 15:42:00,
2013-01-31 07:52:00,47.0,30.0,30.16,ESE,102,9.0,15.0,51,0.00,,,0.00,,2013-01-31 15:52:00,
2013-01-31 08:02:00,48.0,31.0,30.17,East,100,10.0,15.0,51,0.00,,,0.00,,2013-01-31 16:02:00,
2013-01-31 08:11:00,49.0,31.0,30.17,East,94,11.0,16.0,50,0.00,,,0.00,,2013-01-31 16:11:00,
2013-01-31 08:21:00,49.0,31.0,30.17,East,94,11.0,16.0,50,0.00,,,0.00,,2013-01-31 16:21:00,
2013-01-31 08:32:00,50.0,32.0,30.19,East,91,10.0,16.0,49,0.00,,,0.00,,2013-01-31 16:32:00,
2013-01-31 08:41:00,50.0,32.0,30.19,East,91,10.0,16.0,49,0.00,,,0.00,,2013-01-31 16:41:00,
2013-01-31 08:52:00,51.0,33.0,30.19,East,98,10.0,16.0,49,0.00,,,0.00,,2013-01-31 16:52:00,
2013-01-31 09:01:00,51.0,32.0,30.19,East,88,13.0,18.0,48,0.00,,,0.00,,2013-01-31 17:01:00,
2013-01-31 09:11:00,51.0,32.0,30.19,East,88,13.0,18.0,48,0.00,,,0.00,,2013-01-31 17:11:00,
2013-01-31 09:22:00,51.0,33.0,30.19,East,83,11.0,22.0,49,0.00,,,0.00,,2013-01-31 17:22:00,
2013-01-31 09:31:00,52.0,33.0,30.19,East,85,12.0,20.0,48,0.00,,,0.00,,2013-01-31 17:31:00,
2013-01-31 09:42:00,52.0,33.0,30.19,East,85,12.0,20.0,48,0.00,,,0.00,,2013-01-31 17:42:00,
2013-01-31 09:53:00,52.0,32.0,30.19,ENE,78,14.0,22.0,46,0.00,,,0.00,,2013-01-31 17:53:00,
2013-01-31 10:01:00,52.0,32.0,30.20,ENE,78,15.0,24.0,46,0.00,,,0.00,,2013-01-31 18:01:00,
2013-01-31 10:11:00,53.0,33.0,30.22,ENE,74,15.0,22.0,46,0.00,,,0.00,,2013-01-31 18:11:00,
2013-01-31 10:21:00,53.0,33.0,30.22,ENE,74,15.0,22.0,46,0.00,,,0.00,,2013-01-31 18:21:00,
2013-01-31 10:31:00,53.0,33.0,30.22,ENE,68,14.0,22.0,47,0.00,,,0.00,,2013-01-31 18:31:00,
2013-01-31 10:42:00,53.0,33.0,30.22,ENE,68,14.0,22.0,47,0.00,,,0.00,,2013-01-31 18:42:00,
2013-01-31 10:52:00,53.0,33.0,30.22,East,79,14.0,21.0,46,0.00,,,0.00,,2013-01-31 18:52:00,
2013-01-31 11:01:00,54.0,34.0,30.21,East,85,14.0,20.0,46,0.00,,,0.00,,2013-01-31 19:01:00,
2013-01-31 11:11:00,54.0,34.0,30.21,East,85,14.0,20.0,46,0.00,,,0.00,,2013-01-31 19:11:00,
2013-01-31 11:21:00,54.0,33.0,30.21,East,82,12.0,21.0,45,0.00,,,0.00,,2013-01-31 19:21:00,
2013-01-31 11:32:00,55.0,35.0,30.20,ENE,74,14.0,21.0,46,0.00,,,0.00,,2013-01-31 19:32:00,
2013-01-31 11:42:00,55.0,35.0,30.20,ENE,74,14.0,21.0,46,0.00,,,0.00,,2013-01-31 19:42:00,
2013-01-31 11:52:00,55.0,34.0,30.20,ENE,75,10.0,25.0,45,0.00,,,0.00,,2013-01-31 19:52:00,
2013-01-31 12:01:00,55.0,33.0,30.19,ENE,76,14.0,22.0,44,0.00,,,0.00,,2013-01-31 20:01:00,
2013-01-31 12:11:00,54.0,33.0,30.18,ENE,77,14.0,24.0,44,0.00,,,0.00,,2013-01-31 20:11:00,
2013-01-31 12:21:00,54.0,33.0,30.18,ENE,77,14.0,24.0,44,0.00,,,0.00,,2013-01-31 20:21:00,
2013-01-31 12:31:00,55.0,33.0,30.17,East,87,13.0,21.0,44,0.00,,,0.00,,2013-01-31 20:31:00,
2013-01-31 12:41:00,55.0,33.0,30.16,East,83,16.0,23.0,43,0.00,,,0.00,,2013-01-31 20:41:00,
2013-01-31 12:52:00,55.0,33.0,30.16,East,83,16.0,23.0,43,0.00,,,0.00,,2013-01-31 20:52:00,
2013-01-31 13:01:00,55.0,33.0,30.16,East,82,17.0,24.0,43,0.00,,,0.00,,2013-01-31 21:01:00,
2013-01-31 13:11:00,55.0,33.0,30.16,East,82,14.0,23.0,43,0.00,,,0.00,,2013-01-31 21:11:00,
2013-01-31 13:21:00,55.0,33.0,30.16,East,82,14.0,23.0,43,0.00,,,0.00,,2013-01-31 21:21:00,
2013-01-31 13:31:00,55.0,33.0,30.15,East,82,14.0,22.0,43,0.00,,,0.00,,2013-01-31 21:31:00,
2013-01-31 13:42:00,55.0,33.0,30.15,East,82,14.0,22.0,43,0.00,,,0.00,,2013-01-31 21:42:00,
2013-01-31 13:51:00,55.0,33.0,30.15,East,90,13.0,23.0,44,0.00,,,0.00,,2013-01-31 21:51:00,
2013-01-31 14:02:00,56.0,34.0,30.14,East,91,14.0,20.0,43,0.00,,,0.00,,2013-01-31 22:02:00,
2013-01-31 14:11:00,56.0,34.0,30.14,ENE,78,13.0,21.0,43,0.00,,,0.00,,2013-01-31 22:11:00,
2013-01-31 14:21:00,56.0,34.0,30.14,ENE,78,13.0,21.0,43,0.00,,,0.00,,2013-01-31 22:21:00,
2013-01-31 14:32:00,56.0,34.0,30.14,ENE,77,12.0,20.0,43,0.00,,,0.00,,2013-01-31 22:32:00,
2013-01-31 14:42:00,56.0,34.0,30.14,ENE,77,12.0,20.0,43,0.00,,,0.00,,2013-01-31 22:42:00,
2013-01-31 14:52:00,55.0,33.0,30.13,ENE,76,13.0,19.0,43,0.00,,,0.00,,2013-01-31 22:52:00,
2013-01-31 15:01:00,55.0,34.0,30.13,ESE,103,8.0,17.0,45,0.00,,,0.00,,2013-01-31 23:01:00,
2013-01-31 15:11:00,56.0,34.0,30.12,East,81,11.0,16.0,43,0.00,,,0.00,,2013-01-31 23:11:00,
2013-01-31 15:21:00,56.0,34.0,30.12,East,81,11.0,16.0,43,0.00,,,0.00,,2013-01-31 23:21:00,
2013-01-31 15:31:00,56.0,34.0,30.13,East,96,8.0,17.0,43,0.00,,,0.00,,2013-01-31 23:31:00,
2013-01-31 15:41:00,56.0,34.0,30.13,East,96,8.0,17.0,43,0.00,,,0.00,,2013-01-31 23:41:00,
2013-01-31 15:52:00,56.0,33.0,30.13,East,93,9.0,15.0,42,0.00,,,0.00,,2013-01-31 23:52:00,
2013-01-31 16:01:00,55.0,33.0,30.13,ESE,103,9.0,15.0,43,0.00,,,0.00,,2013-02-01 00:01:00,
2013-01-31 16:11:00,55.0,33.0,30.13,ESE,103,9.0,15.0,43,0.00,,,0.00,,2013-02-01 00:11:00,
2013-01-31 16:21:00,55.0,33.0,30.13,ESE,105,5.0,12.0,43,0.00,,,0.00,,2013-02-01 00:21:00,
2013-01-31 16:31:00,55.0,33.0,30.13,ESE,122,5.0,9.0,43,0.00,,,0.00,,2013-02-01 00:31:00,
2013-01-31 16:41:00,55.0,33.0,30.13,ESE,122,5.0,9.0,43,0.00,,,0.00,,2013-02-01 00:41:00,
2013-01-31 16:51:00,54.0,32.0,30.13,ESE,122,6.0,12.0,43,0.00,,,0.00,,2013-02-01 00:51:00,
2013-01-31 17:01:00,52.0,31.0,30.14,SE,129,8.0,13.0,45,0.00,,,0.00,,2013-02-01 01:01:00,
2013-01-31 17:11:00,51.0,31.0,30.14,SE,135,8.0,12.0,47,0.00,,,0.00,,2013-02-01 01:11:00,
2013-01-31 17:21:00,51.0,31.0,30.14,SE,135,8.0,12.0,47,0.00,,,0.00,,2013-02-01 01:21:00,
2013-01-31 17:31:00,50.0,31.0,30.14,SE,127,4.0,8.0,48,0.00,,,0.00,,2013-02-01 01:31:00,
2013-01-31 17:41:00,50.0,31.0,30.14,SE,127,4.0,8.0,48,0.00,,,0.00,,2013-02-01 01:41:00,
2013-01-31 17:52:00,49.0,31.0,30.14,SE,127,5.0,11.0,50,0.00,,,0.00,,2013-02-01 01:52:00,
2013-01-31 18:01:00,48.0,30.0,30.14,SE,138,4.0,8.0,50,0.00,,,0.00,,2013-02-01 02:01:00,
2013-01-31 18:11:00,48.0,30.0,30.14,SE,138,4.0,8.0,50,0.00,,,0.00,,2013-02-01 02:11:00,
2013-01-31 18:21:00,48.0,31.0,30.15,SE,145,5.0,8.0,52,0.00,,,0.00,,2013-02-01 02:21:00,
2013-01-31 18:31:00,47.0,30.0,30.14,SE,144,6.0,8.0,52,0.00,,,0.00,,2013-02-01 02:31:00,
2013-01-31 18:41:00,47.0,30.0,30.14,SE,144,6.0,8.0,52,0.00,,,0.00,,2013-02-01 02:41:00,
2013-01-31 18:52:00,47.0,31.0,30.14,SE,135,5.0,8.0,53,0.00,,,0.00,,2013-02-01 02:52:00,
2013-01-31 19:01:00,47.0,31.0,30.14,SE,136,6.0,10.0,53,0.00,,,0.00,,2013-02-01 03:01:00,
2013-01-31 19:11:00,47.0,31.0,30.14,SE,136,6.0,10.0,53,0.00,,,0.00,,2013-02-01 03:11:00,
2013-01-31 19:21:00,47.0,30.0,30.13,ESE,117,5.0,11.0,52,0.00,,,0.00,,2013-02-01 03:21:00,
2013-01-31 19:32:00,48.0,31.0,30.13,ESE,122,2.0,9.0,52,0.00,,,0.00,,2013-02-01 03:32:00,
2013-01-31 19:41:00,48.0,31.0,30.13,ESE,122,2.0,9.0,52,0.00,,,0.00,,2013-02-01 03:41:00,
2013-01-31 19:51:00,48.0,31.0,30.14,ESE,120,6.0,11.0,52,0.00,,,0.00,,2013-02-01 03:51:00,
2013-01-31 20:01:00,48.0,31.0,30.14,ESE,122,6.0,12.0,52,0.00,,,0.00,,2013-02-01 04:01:00,
2013-01-31 20:11:00,48.0,31.0,30.14,ESE,121,5.0,9.0,51,0.00,,,0.00,,2013-02-01 04:11:00,
2013-01-31 20:21:00,48.0,31.0,30.14,ESE,121,5.0,9.0,51,0.00,,,0.00,,2013-02-01 04:21:00,
2013-01-31 20:31:00,48.0,31.0,30.14,SE,127,6.0,11.0,52,0.00,,,0.00,,2013-02-01 04:31:00,
2013-01-31 20:41:00,48.0,31.0,30.14,SE,127,6.0,11.0,52,0.00,,,0.00,,2013-02-01 04:41:00,
2013-01-31 20:52:00,48.0,31.0,30.15,SE,124,5.0,8.0,52,0.00,,,0.00,,2013-02-01 04:52:00,
2013-01-31 21:02:00,48.0,31.0,30.15,ESE,122,8.0,12.0,52,0.00,,,0.00,,2013-02-01 05:02:00,
2013-01-31 21:11:00,48.0,31.0,30.15,ESE,122,8.0,12.0,52,0.00,,,0.00,,2013-02-01 05:11:00,
2013-01-31 21:22:00,49.0,32.0,30.15,ESE,123,7.0,12.0,52,0.00,,,0.00,,2013-02-01 05:22:00,
2013-01-31 21:31:00,49.0,32.0,30.15,ESE,111,4.0,11.0,51,0.00,,,0.00,,2013-02-01 05:31:00,
2013-01-31 21:41:00,49.0,32.0,30.15,ESE,111,4.0,11.0,51,0.00,,,0.00,,2013-02-01 05:41:00,
2013-01-31 21:52:00,49.0,31.0,30.14,ESE,113,4.0,9.0,50,0.00,,,0.00,,2013-02-01 05:52:00,
2013-01-31 22:01:00,49.0,31.0,30.14,ESE,115,5.0,7.0,50,0.00,,,0.00,,2013-02-01 06:01:00,
2013-01-31 22:11:00,49.0,31.0,30.14,ESE,115,5.0,7.0,50,0.00,,,0.00,,2013-02-01 06:11:00,
2013-01-31 22:21:00,48.0,31.0,30.14,ESE,118,5.0,9.0,52,0.00,,,0.00,,2013-02-01 06:21:00,
2013-01-31 22:31:00,48.0,31.0,30.14,ESE,121,5.0,11.0,52,0.00,,,0.00,,2013-02-01 06:31:00,
2013-01-31 22:41:00,48.0,31.0,30.14,ESE,121,5.0,11.0,52,0.00,,,0.00,,2013-02-01 06:41:00,
2013-01-31 22:52:00,48.0,31.0,30.14,SE,131,7.0,11.0,52,0.00,,,0.00,,2013-02-01 06:52:00,
2013-01-31 23:01:00,48.0,31.0,30.14,ESE,117,7.0,12.0,52,0.00,,,0.00,,2013-02-01 07:01:00,
2013-01-31 23:11:00,48.0,31.0,30.14,ESE,121,4.0,8.0,51,0.00,,,0.00,,2013-02-01 07:11:00,
2013-01-31 23:21:00,48.0,31.0,30.14,ESE,121,4.0,8.0,51,0.00,,,0.00,,2013-02-01 07:21:00,
2013-01-31 23:31:00,48.0,31.0,30.14,ESE,122,4.0,8.0,51,0.00,,,0.00,,2013-02-01 07:31:00,
2013-01-31 23:41:00,48.0,31.0,30.14,ESE,122,4.0,8.0,51,0.00,,,0.00,,2013-02-01 07:41:00,
2013-01-31 23:52:00,48.0,31.0,30.14,ESE,104,3.0,9.0,51,0.00,,,0.00,,2013-02-01 07:52:00,